Location: Newark
(43.0000°N, 1.6781°W)
Time: 01:00:38
(UTC+00:00)

Vanguard 1 Rocket - Pass Details

Date: 27 April 2021
Orbit: 652 x 4224 km, 34.3° (Epoch: 06 May)

Event Time Altitude Azimuth Distance (km) Brightness Sun altitude
Rises 11:26:09 0° 238° (WSW) 5,840 11.6 59.9°
Reaches altitude 10° 11:31:07 10° 231° (SW) 4,215 11.1 60.1°
Maximum altitude 11:39:48 34° 172° (S) 1,852 10.4 60.5°
Drops below altitude 10° 11:45:04 10° 108° (ESE) 2,526 10.0 60.7°
Sets 11:47:18 0° 98° (E) 3,259 10.4 60.8°
